Regional Weather Roundup
Issued by NWS

Home | Current Version | Previous Version | Text Only | Print | Product List | Glossary Off
Versions: 1 2 3 4 5 6 7 8 9 10 11 12 13 14 15 16 17 18 19 20 21 22 23 24 25 26 27 28 29 30 31 32 33 34 35 36 37 38 39 40 41 42 43 44 45 46 47 48 49 50

000
ASUS43 KDTX 230110
RWRMI
MICHIGAN HOURLY REGIONAL WEATHER ROUNDUP
NATIONAL WEATHER SERVICE DETROIT/PONTIAC MI
900 PM EDT MON SEP 22 2014

NOTE: "FAIR" INDICATES FEW OR NO CLOUDS BELOW 12,000 FEET WITH NO
SIGNIFICANT WEATHER AND/OR OBSTRUCTION TO VISIBILITY.

MIZ047>049-052>055-059>063-066>070-074>076-081>083-230200-
SOUTHEAST LOWER MICHIGAN

CITY           SKY/WX    TMP DP  RH WIND       PRES   REMARKS
ADRIAN         CLEAR     51  45  79 CALM      30.25R
ALMA           CLEAR     51  47  86 W3        30.22R
ANN ARBOR      CLEAR     46  43  89 CALM      30.23R
BAD AXE        CLEAR     51  47  84 SW3       30.19R
DETROIT CITY   CLEAR     57  44  62 CALM      30.23R
DETROIT        PTCLDY    57  42  57 CALM      30.24R
FLINT          MOCLDY    51  45  79 SW5       30.22R
GROSSE ILE     CLEAR     54  46  76 CALM      30.23R
HILLSDALE      CLEAR     47  46  96 CALM      30.24R
HOWELL         CLEAR     50  45  85 SW3       30.23R

CITY           SKY/WX    TMP DP  RH WIND       PRES   REMARKS
JACKSON        CLEAR     49  46  90 NW3       30.24R
LAMBERTVILLE   CLEAR     50  46  87 CALM      30.25R
LANSING        CLEAR     55  46  71 W6        30.24R
LAPEER         NOT AVBL
MASON          CLEAR     50  45  83 CALM      30.24R
MONROE         CLEAR     48  46  93 CALM      30.23R
MT. CLEMENS    CLEAR     50  45  83 S2        30.21R
PONTIAC        PTCLDY    52  44  74 CALM      30.22R
PORT HOPE        N/A     54  45  71 SW6       30.16R
PORT HURON     CLEAR     45  45 100 CALM      30.22S
TRI CITIES     CLEAR     54  47  77 SW6       30.21R
YPSILANTI      CLEAR     51  43  74 CALM      30.24R
$$
MIZ043>046-050>051-056>058-064>065-071>073-077>080-230200-
SOUTHWEST LOWER MICHIGAN

CITY           SKY/WX    TMP DP  RH WIND       PRES   REMARKS
BATTLE CREEK   CLEAR     51  44  77 W6        30.26R
BENTON HARBOR  CLEAR     47  46  97 CALM      30.25R
BIG RAPIDS     CLEAR     50  48  93 W3        30.21R
COLDWATER      CLEAR     54  46  75 CALM      30.25R
HOLLAND        CLEAR     51  47  86 CALM      30.25R
GRAND RAPIDS   CLEAR     54  47  77 SW5       30.24R
KALAMAZOO      CLEAR     52  44  74 W3        30.26R
MARSHALL       CLEAR     49  45  87 CALM      30.25R
MUSKEGON       PTCLDY    53  47  79 SE3       30.24R
$$
MIZ016>042-230200-
NORTHERN LOWER MICHIGAN

CITY           SKY/WX    TMP DP  RH WIND       PRES   REMARKS
ALPENA         CLEAR     53  47  79 SW3       30.14R
BEAVER ISLAND  CLEAR     58  52  80 SW12      30.12S
BELLAIRE       CLEAR     53  48  83 CALM      30.17R
CADILLAC       CLEAR     50  47  88 SW5       30.19S
CHARLEVOIX     CLEAR     56  49  75 SW9       30.17R
FRANKFORT      CLEAR     57  51  80 SW3       30.18R
GAYLORD        CLEAR     50  45  83 SW6       30.16R
GRAYLING       CLEAR     49  48  95 SW5       30.19R
HARBOR SPRINGS CLEAR     58  49  72 W6        30.14R
HOUGHTON LAKE  CLEAR     56  47  71 W7        30.19R
MANISTEE       CLEAR     54  46  76 CALM      30.20S
OSCODA         CLEAR     49  46  92 W6        30.15S
PELLSTON       CLEAR     54  50  86 CALM      30.13R
TRAVERSE CITY  PTCLDY    56  47  71 CALM      30.16R
$$
MIZ007>008-015-230200-
EASTERN UPPER MICHIGAN

CITY           SKY/WX    TMP DP  RH WIND       PRES   REMARKS
KINROSS        CLEAR     54  52  94 SW3       30.11R
MACKINAC ISLAN CLEAR     56  52  86 SW12      30.11R
NEWBERRY       CLEAR     52  49  90 SW10      30.10R
S. S. MARIE    CLEAR     52  48  86 SW5       30.09R
$$
MIZ004>006-011>014-085-230200-
CENTRAL UPPER MICHIGAN

CITY           SKY/WX    TMP DP  RH WIND       PRES   REMARKS
MANISTIQUE     CLEAR     55  53  94 SW5       30.10R
ESCANABA       CLEAR     55  46  71 SW3       30.12R
MENOMINEE      CLEAR     59  48  67 SW3       30.14R
SAWYER-GWINN   CLEAR     57  46  67 SW6       30.11R
$$
MIZ001>003-009>011-084-230200-
WESTERN UPPER MICHIGAN

CITY           SKY/WX    TMP DP  RH WIND       PRES   REMARKS
IRON MOUNTAIN  CLEAR     54  47  77 CALM      30.12R
HOUGHTON       CLEAR     60  49  66 W13       30.06R
COPPER HARBOR    N/A     65  49  56 NW13G24   30.03S
IRONWOOD       CLEAR     55  52  88 CALM      30.11R
$$

ABBREVIATIONS USED IN REMARKS
   TC - TEMPERATURE IN CELSIUS
  WCI - WIND CHILL INDEX
   HX - HEAT INDEX
  VSB - VISIBILITY



USA.gov is the U.S. government's official web portal to all federal, state and local government web resources and services.